NANAKWA Weather Reports


time (UTC)temp
C
wind
direction
speed
KPH
gust
KPH
rain 1hr
cm
rain 24hr
cm
rain mn
cm
humidity
%
barometer
mb
20260906222422 15 202 16.1 19.3 0.00 0.00 0.00 1016.0
20260906215621 15 202 16.1 19.3 0.00 0.00 0.00 1017.0
20260906212820 15 202 16.1 19.3 0.00 0.00 0.00 1017.0
20260906210020 15 202 19.3 22.5 0.00 0.00 0.00 1017.0
20260906203219 15 202 19.3 22.5 0.00 0.00 0.00 1017.0
20260906200418 15 202 17.7 19.3 0.00 0.00 0.00 1017.0
20260906193617 15 202 17.7 19.3 0.00 0.00 0.00 1017.0
20260906190817 13 202 16.1 17.7 0.00 0.00 0.00 1018.0
20260906180714 13 180 9.7 12.9 0.00 0.00 0.00 1018.0
20260906173914 13 180 9.7 12.9 0.00 0.00 0.00 1018.0
20260906171113 13 180 9.7 12.9 0.00 0.00 0.00 1018.0
20260906164312 13 180 9.7 12.9 0.00 0.00 0.00 1018.0
20260906161511 13 180 9.7 12.9 0.00 0.00 0.00 1018.0
20260906154711 13 180 11.3 16.1 0.00 0.00 0.00 1018.0
20260906151910 13 180 11.3 16.1 0.00 0.00 0.00 1018.0
20260906145109 13 202 9.7 12.9 0.00 0.00 0.00 1018.0
20260906142309 13 202 9.7 12.9 0.00 0.00 0.00 1018.0
20260906135508 15 202 9.7 11.3 0.00 0.00 0.00 1018.0
20260906132708 15 202 9.7 11.3 0.00 0.00 0.00 1018.0
20260906125907 15 202 16.1 19.3 0.00 0.00 0.00 1018.0
20260906123106 15 202 16.1 19.3 0.00 0.00 0.00 1018.0
20260906120306 15 202 11.3 14.5 0.00 0.00 0.00 1018.0
20260906113505 15 202 11.3 14.5 0.00 0.00 0.00 1018.0
20260906110704 15 202 16.1 19.3 0.00 0.00 0.00 1018.0
20260906103904 15 202 16.1 19.3 0.00 0.00 0.00 1018.0
20260906101103 15 202 16.1 19.3 0.00 0.00 0.00 1018.0
20260906094302 15 202 14.5 19.3 0.00 0.00 0.00 1018.0
20260906091502 15 202 14.5 19.3 0.00 0.00 0.00 1018.0
20260906084701 15 202 16.1 22.5 0.00 0.00 0.00 1017.0
20260906081900 15 202 16.1 22.5 0.00 0.00 0.00 1017.0
20260906075100 15 202 19.3 24.1 0.00 0.00 0.00 1017.0
20260906072259 15 202 19.3 24.1 0.00 0.00 0.00 1017.0
20260906065458 15 180 27.4 32.2 0.00 0.00 0.00 1016.0
20260906062657 15 180 27.4 32.2 0.00 0.00 0.00 1016.0
20260906055857 15 202 24.1 30.6 0.00 0.00 0.00 1016.0
20260906053056 15 202 24.1 30.6 0.00 0.00 0.00 1016.0
20260906050255 16 202 27.4 32.2 0.00 0.00 0.00 1015.0
20260906040153 16 202 29.0 37.0 0.00 0.00 0.00 1015.0
20260906033352 16 202 29.0 37.0 0.00 0.00 0.00 1015.0
20260906030552 18 202 30.6 35.4 0.00 0.00 0.00 1014.0
20260906023751 18 202 30.6 35.4 0.00 0.00 0.00 1014.0
20260906020950 18 202 30.6 35.4 0.00 0.00 0.00 1014.0
20260906014150 18 202 22.5 25.7 0.00 0.00 0.00 1014.0
20260906011349 18 202 22.5 25.7 0.00 0.00 0.00 1014.0
20260906004548 20 135 1.6 3.2 0.00 0.00 0.00 1015.0
20260906001748 20 135 1.6 3.2 0.00 0.00 0.00 1015.0
20260905234947 20 360 0.0 0.0 0.00 0.00 0.00 1015.0
20260905232146 20 360 0.0 0.0 0.00 0.00 0.00 1015.0
20260905225346 20 360 0.0 0.0 0.00 0.00 0.00 1016.0